TimeCET,TemperatureF,Dew PointF,Humidity,Sea Level PressureIn,VisibilityMPH,Wind Direction,Wind SpeedMPH,Gust SpeedMPH,PrecipitationIn,Events,Conditions,WindDirDegrees,DateUTC
12:00 AM,52,49,85,30.43,,North,2.3,,,,,350,2012-11-13 23:00:00
12:20 AM,50.0,48.2,94,30.39,6.2,Variable,2.3,-,N/A,,Mostly Cloudy,0,2012-11-13 23:20:00
12:50 AM,50.0,48.2,94,30.39,6.2,Variable,1.2,-,N/A,,Scattered Clouds,0,2012-11-13 23:50:00
1:20 AM,50.0,48.2,94,30.39,6.2,Variable,1.2,-,N/A,,Overcast,0,2012-11-14 00:20:00
1:50 AM,48.2,48.2,100,30.39,5.0,Variable,1.2,-,N/A,,Overcast,0,2012-11-14 00:50:00
2:00 AM,52,49,85,30.40,,Calm,Calm,,,,,,2012-11-14 01:00:00
2:20 AM,48.2,48.2,100,30.39,3.7,Variable,1.2,-,N/A,,Overcast,0,2012-11-14 01:20:00
2:50 AM,50.0,48.2,94,30.36,5.0,Variable,1.2,-,N/A,,Overcast,0,2012-11-14 01:50:00
3:00 AM,52,48,83,30.39,,WNW,1.2,,,,,290,2012-11-14 02:00:00
3:20 AM,48.2,48.2,100,30.36,4.3,Variable,1.2,-,N/A,,Overcast,0,2012-11-14 02:20:00
3:50 AM,48.2,48.2,100,30.36,5.0,Variable,1.2,-,N/A,,Mostly Cloudy,0,2012-11-14 02:50:00
4:20 AM,46.4,44.6,93,30.36,3.1,North,2.3,-,N/A,,Mist,350,2012-11-14 03:20:00
4:50 AM,46.4,46.4,100,30.36,3.1,Variable,2.3,-,N/A,,Mist,0,2012-11-14 03:50:00
5:00 AM,49,48,94,30.38,,North,2.3,,,,,350,2012-11-14 04:00:00
5:20 AM,44.6,44.6,100,30.36,0.6,Variable,2.3,-,N/A,Fog,Fog,0,2012-11-14 04:20:00
5:50 AM,44.6,44.6,100,30.36,-9999.0,Variable,2.3,-,N/A,,Mist,0,2012-11-14 04:50:00
6:00 AM,48,46,92,30.38,,NNW,2.3,,,,,340,2012-11-14 05:00:00
6:20 AM,44.6,44.6,100,30.36,-9999.0,Variable,1.2,-,N/A,,Clear,0,2012-11-14 05:20:00
6:50 AM,44.6,42.8,93,30.36,6.2,Variable,2.3,-,N/A,,Scattered Clouds,0,2012-11-14 05:50:00
7:20 AM,42.8,42.8,100,30.36,6.2,North,3.5,-,N/A,,Scattered Clouds,350,2012-11-14 06:20:00
7:40 AM,48,46,89,30.39,,NNW,2.3,,,,,340,2012-11-14 06:40:00
7:50 AM,44.6,44.6,100,30.36,6.2,North,4.6,-,N/A,,Scattered Clouds,350,2012-11-14 06:50:00
8:00 AM,48,45,86,30.39,,NW,2.3,,,,,320,2012-11-14 07:00:00
8:20 AM,46.4,44.6,93,30.36,6.2,North,4.6,-,N/A,,Mostly Cloudy,360,2012-11-14 07:20:00
8:50 AM,46.4,46.4,100,30.36,6.2,North,1.2,-,N/A,,Mostly Cloudy,350,2012-11-14 07:50:00
9:00 AM,50,46,81,30.40,,Calm,Calm,,,,,,2012-11-14 08:00:00
9:20 AM,48.2,46.4,93,30.36,6.2,Variable,2.3,-,N/A,,Mostly Cloudy,0,2012-11-14 08:20:00
9:50 AM,50.0,46.4,87,30.36,6.2,Variable,1.2,-,N/A,,Mostly Cloudy,0,2012-11-14 08:50:00
10:20 AM,50.0,46.4,87,30.36,6.2,NNW,2.3,-,N/A,,Scattered Clouds,340,2012-11-14 09:20:00
10:50 AM,53.6,46.4,77,30.36,6.2,Variable,1.2,-,N/A,,Partly Cloudy,0,2012-11-14 09:50:00
11:00 AM,52,48,82,30.38,,South,1.2,,,,,180,2012-11-14 10:00:00
11:20 AM,55.4,44.6,67,30.36,6.2,Variable,2.3,-,N/A,,Partly Cloudy,0,2012-11-14 10:20:00
11:50 AM,57.2,46.4,67,30.33,6.2,South,2.3,-,N/A,,Partly Cloudy,170,2012-11-14 10:50:00
12:00 PM,54,49,77,30.34,,South,2.3,,,,,190,2012-11-14 11:00:00
12:20 PM,59.0,46.4,63,30.30,6.2,Variable,3.5,-,N/A,,Partly Cloudy,0,2012-11-14 11:20:00
12:50 PM,59.0,46.4,63,30.30,6.2,South,3.5,-,N/A,,Partly Cloudy,180,2012-11-14 11:50:00
1:20 PM,59.0,48.2,67,30.27,6.2,South,4.6,-,N/A,,Partly Cloudy,180,2012-11-14 12:20:00
1:50 PM,60.8,48.2,63,30.27,-9999.0,South,5.8,-,N/A,,Clear,170,2012-11-14 12:50:00
2:00 PM,57,49,65,30.28,,SSE,3.5,,,,,160,2012-11-14 13:00:00
2:20 PM,60.8,48.2,63,30.27,6.2,South,6.9,-,N/A,,Partly Cloudy,180,2012-11-14 13:20:00
2:45 PM,59.0,48.2,67,30.27,6.2,South,9.2,-,N/A,,Partly Cloudy,180,2012-11-14 13:45:00
3:00 PM,58,48,62,30.27,,South,10.4,,,,,190,2012-11-14 14:00:00
3:20 PM,59.0,48.2,67,30.27,6.2,South,9.2,-,N/A,,Scattered Clouds,180,2012-11-14 14:20:00
3:50 PM,57.2,48.2,72,30.27,6.2,South,8.1,-,N/A,,Scattered Clouds,180,2012-11-14 14:50:00
4:20 PM,57.2,46.4,67,30.27,6.2,South,6.9,-,N/A,,Mostly Cloudy,190,2012-11-14 15:20:00
4:50 PM,57.2,48.2,72,30.30,6.2,South,4.6,-,N/A,,Mostly Cloudy,190,2012-11-14 15:50:00
5:00 PM,57,48,63,30.30,,South,6.9,,,,,190,2012-11-14 16:00:00
5:20 PM,55.4,48.2,77,30.30,6.2,SSW,5.8,-,N/A,,Mostly Cloudy,200,2012-11-14 16:20:00
5:50 PM,55.4,46.4,72,30.30,6.2,South,8.1,-,N/A,,Mostly Cloudy,180,2012-11-14 16:50:00
6:00 PM,56,47,63,30.31,,SSW,5.8,,,,,200,2012-11-14 17:00:00
6:20 PM,55.4,46.4,72,30.30,6.2,Variable,2.3,-,N/A,,Mostly Cloudy,0,2012-11-14 17:20:00
6:50 PM,55.4,46.4,72,30.30,6.2,SSW,3.5,-,N/A,,Mostly Cloudy,210,2012-11-14 17:50:00
7:20 PM,53.6,46.4,77,30.30,6.2,SSW,4.6,-,N/A,,Mostly Cloudy,210,2012-11-14 18:20:00
7:50 PM,53.6,46.4,77,30.30,6.2,SSW,3.5,-,N/A,,Mostly Cloudy,210,2012-11-14 18:50:00
8:00 PM,54,47,68,30.32,,South,1.2,,,,,170,2012-11-14 19:00:00
8:20 PM,53.6,46.4,77,30.30,6.2,Variable,1.2,-,N/A,,Mostly Cloudy,0,2012-11-14 19:20:00
8:50 PM,53.6,46.4,77,30.30,6.2,Variable,1.2,-,N/A,,Mostly Cloudy,0,2012-11-14 19:50:00
9:00 PM,54,46,67,30.31,,WNW,1.2,,,,,300,2012-11-14 20:00:00
9:20 PM,51.8,48.2,88,30.30,6.2,North,2.3,-,N/A,,Mostly Cloudy,10,2012-11-14 20:20:00
9:50 PM,50.0,48.2,94,30.30,6.2,North,2.3,-,N/A,,Mostly Cloudy,360,2012-11-14 20:50:00
10:20 PM,51.8,46.4,82,30.30,6.2,NNW,1.2,-,N/A,,Mostly Cloudy,340,2012-11-14 21:20:00
10:50 PM,50.0,48.2,94,30.30,6.2,Variable,1.2,-,N/A,,Mostly Cloudy,0,2012-11-14 21:50:00
11:00 PM,52,47,77,30.31,,Calm,Calm,,,,,,2012-11-14 22:00:00
11:20 PM,48.2,46.4,93,30.27,5.0,Variable,1.2,-,N/A,,Partly Cloudy,0,2012-11-14 22:20:00
11:50 PM,48.2,46.4,93,30.27,4.3,Variable,1.2,-,N/A,,Scattered Clouds,0,2012-11-14 22:50:00